Shelby, NC

12:10 AM EST on December 10, 2019 (GMT -0500)
Shelby Municipal

Weather History for KEHO - October, 2019

Change the Weather History Date:

Saturday, October 5, 2019

  Actual Average (WUND) Record (WUND)
Temperature  
Mean Temperature 67 °F -  
Max Temperature 76 °F - - (-1)
Min Temperature 57 °F - - (-1)
Cooling Degree Days 2    
Growing Degree Days 17 (Base 50)    
Moisture  
Dew Point 57 °F    
Average Humidity 73    
Maximum Humidity 86    
Minimum Humidity 43    
Precipitation  
Precipitation 0.00 in - - ()
Sea Level Pressure  
Sea Level Pressure 30.23 in    
Wind  
Wind Speed 9 mph (ENE)    
Max Wind Speed 16 mph    
Max Gust Speed 24 mph    
Visibility 10 miles    
Events Rain    
Averages and records for this station are not official NWS values.
T = Trace of Precipitation, MM = Missing Value Source: NWS Daily Summary

Daily Weather History Graph

Daily Weather History Graph

Search for Another Location

Airport or City:

Astronomy

Oct. 05, 2019 Rise Set
Actual Time 7:24 AM EDT 7:04 PM EDT
Civil Twilight 6:58 AM EDT 7:30 PM EDT
Nautical Twilight 6:29 AM EDT 7:59 PM EDT
Astronomical Twilight 5:59 AM EDT 8:29 PM EDT
Moon 2:36 PM EDT (10/5) No Moon Set
Length of Visible Light 12h 31m
Length of Day
11h 40m
Waxing Crescent, 50% of the Moon is Illuminated
Oct 5
Waxing Crescent
Oct 5
First Quarter
Oct 13
Full
Oct 21
Last Quarter
Oct 27
New

Hourly Weather History & Observations

Time (EDT) Temp. Dew Point Humidity Pressure Visibility Wind Dir Wind Speed Gust Speed Precip Events Conditions
12:15 AM 76.6 °F 52.9 °F 43% 30.09 in 10.0 mi NE 9.2 mph - N/A   Clear
12:35 AM 76.3 °F 53.8 °F 45% 30.10 in 10.0 mi NE 9.2 mph - N/A   Scattered Clouds
12:55 AM 75.4 °F 54.7 °F 48% 30.10 in 10.0 mi NE 6.9 mph - N/A   Scattered Clouds
1:15 AM 75.4 °F 55.6 °F 50% 30.10 in 10.0 mi NNE 6.9 mph - N/A   Mostly Cloudy
1:35 AM 74.8 °F 56.5 °F 53% 30.11 in 10.0 mi NNE 6.9 mph - N/A   Overcast
1:55 AM 74.7 °F 58.1 °F 56% 30.11 in 10.0 mi NNE 9.2 mph - N/A   Overcast
2:15 AM 74.7 °F 59.7 °F 60% 30.12 in 10.0 mi NNE 8.1 mph - N/A   Overcast
2:35 AM 74.7 °F 62.1 °F 65% 30.13 in 10.0 mi ENE 10.4 mph 17.3 mph N/A   Overcast
2:55 AM 73.8 °F 66.2 °F 77% 30.13 in 10.0 mi ENE 16.1 mph 24.2 mph N/A   Overcast
3:15 AM 72.5 °F 63.1 °F 72% 30.14 in 10.0 mi East 13.8 mph 23.0 mph N/A   Overcast
3:35 AM 71.6 °F 61.2 °F 70% 30.14 in 10.0 mi East 13.8 mph 20.7 mph N/A   Overcast
3:55 AM 70.9 °F 61.2 °F 71% 30.15 in 10.0 mi ENE 13.8 mph 19.6 mph N/A   Overcast
4:15 AM 70.0 °F 61.7 °F 75% 30.15 in 10.0 mi ENE 16.1 mph - N/A   Overcast
4:35 AM 68.9 °F 61.0 °F 76% 30.17 in 10.0 mi ENE 12.7 mph 20.7 mph N/A   Overcast
4:55 AM 68.0 °F 60.4 °F 77% 30.17 in 10.0 mi ENE 12.7 mph 18.4 mph N/A   Light Drizzle
5:15 AM 67.5 °F 59.9 °F 77% 30.18 in 10.0 mi East 11.5 mph 21.9 mph N/A   Light Drizzle
5:35 AM 67.5 °F 58.6 °F 73% 30.19 in 10.0 mi ENE 12.7 mph 17.3 mph N/A   Overcast
5:55 AM 67.1 °F 59.0 °F 75% 30.20 in 10.0 mi ENE 12.7 mph 18.4 mph N/A   Overcast
6:15 AM 66.6 °F 59.2 °F 77% 30.20 in 10.0 mi ENE 8.1 mph 19.6 mph N/A   Overcast
6:35 AM 66.2 °F 59.2 °F 78% 30.21 in 10.0 mi ENE 9.2 mph - N/A   Overcast
6:55 AM 65.5 °F 59.2 °F 80% 30.21 in 10.0 mi ENE 10.4 mph 17.3 mph N/A   Overcast
7:15 AM 64.9 °F 58.6 °F 80% 30.23 in 10.0 mi ENE 12.7 mph 17.3 mph N/A   Overcast
7:35 AM 64.8 °F 58.8 °F 81% 30.24 in 10.0 mi ENE 11.5 mph 17.3 mph N/A   Overcast
7:55 AM 64.6 °F 58.8 °F 82% 30.25 in 10.0 mi ENE 10.4 mph - N/A   Overcast
8:15 AM 63.5 °F 59.2 °F 86% 30.26 in 10.0 mi ENE 8.1 mph 16.1 mph N/A   Overcast
8:35 AM 63.7 °F 58.6 °F 84% 30.26 in 10.0 mi ENE 12.7 mph - N/A   Overcast
8:55 AM 63.5 °F 58.6 °F 84% 30.26 in 10.0 mi ENE 9.2 mph - N/A   Overcast
9:15 AM 63.9 °F 58.5 °F 83% 30.27 in 10.0 mi ENE 8.1 mph - N/A   Overcast
9:35 AM 64.0 °F 58.6 °F 83% 30.27 in 10.0 mi ENE 8.1 mph - N/A   Overcast
9:55 AM 63.9 °F 58.5 °F 83% 30.27 in 10.0 mi ENE 9.2 mph - N/A   Overcast
10:15 AM 63.9 °F 58.5 °F 83% 30.28 in 10.0 mi East 8.1 mph - N/A   Overcast
10:35 AM 63.5 °F 58.1 °F 83% 30.29 in 10.0 mi ENE 9.2 mph - N/A   Overcast
10:55 AM 63.5 °F 57.9 °F 82% 30.29 in 10.0 mi East 8.1 mph 18.4 mph N/A   Overcast
11:15 AM 63.5 °F 58.1 °F 83% 30.29 in 10.0 mi East 5.8 mph - N/A   Overcast
11:35 AM 63.9 °F 58.1 °F 81% 30.29 in 10.0 mi ENE 9.2 mph - N/A   Overcast
11:55 AM 64.2 °F 57.9 °F 80% 30.29 in 10.0 mi ENE 9.2 mph - N/A   Overcast
12:15 PM 63.9 °F 57.2 °F 79% 30.29 in 10.0 mi East 10.4 mph - N/A   Overcast
12:35 PM 63.7 °F 56.5 °F 77% 30.29 in 10.0 mi ENE 11.5 mph - N/A   Overcast
12:55 PM 63.9 °F 56.3 °F 76% 30.29 in 10.0 mi East 10.4 mph - N/A   Overcast
1:15 PM 64.2 °F 56.1 °F 75% 30.28 in 10.0 mi East 8.1 mph - N/A   Overcast
1:35 PM 64.6 °F 55.9 °F 74% 30.27 in 10.0 mi ENE 10.4 mph - N/A   Overcast
1:55 PM 64.6 °F 55.8 °F 73% 30.27 in 10.0 mi East 6.9 mph - N/A   Overcast
2:15 PM 64.9 °F 55.9 °F 73% 30.26 in 10.0 mi ENE 8.1 mph - N/A   Overcast
2:35 PM 64.4 °F 55.9 °F 74% 30.25 in 10.0 mi East 8.1 mph - N/A   Overcast
2:55 PM 64.6 °F 54.0 °F 68% 30.25 in 10.0 mi East 11.5 mph - N/A   Overcast
3:15 PM 65.3 °F 54.7 °F 68% 30.25 in 10.0 mi East 9.2 mph - N/A   Overcast
3:35 PM 65.3 °F 54.5 °F 68% 30.25 in 10.0 mi ENE 8.1 mph - N/A   Overcast
3:55 PM 65.1 °F 55.4 °F 71% 30.25 in 10.0 mi ENE 6.9 mph - N/A   Overcast
4:15 PM 65.3 °F 54.5 °F 68% 30.25 in 10.0 mi East 9.2 mph - N/A   Overcast
4:35 PM 65.1 °F 54.1 °F 68% 30.25 in 10.0 mi ENE 9.2 mph - N/A   Overcast
4:55 PM 64.6 °F 54.0 °F 68% 30.25 in 10.0 mi ENE 8.1 mph - N/A   Overcast
5:15 PM 64.4 °F 53.6 °F 68% 30.25 in 10.0 mi ENE 9.2 mph - N/A   Overcast
5:35 PM 64.8 °F 54.0 °F 68% 30.24 in 10.0 mi ENE 6.9 mph - N/A   Overcast
5:55 PM 64.4 °F 54.0 °F 69% 30.25 in 10.0 mi ENE 6.9 mph - N/A   Overcast
6:15 PM 63.9 °F 53.4 °F 69% 30.25 in 10.0 mi ENE 6.9 mph - N/A   Overcast
6:35 PM 63.5 °F 53.2 °F 69% 30.24 in 10.0 mi ENE 4.6 mph - N/A   Overcast
6:55 PM 63.1 °F 52.9 °F 69% 30.25 in 10.0 mi NE 5.8 mph - N/A   Overcast
7:35 PM 63.0 °F 52.7 °F 69% 30.24 in 10.0 mi ENE 5.8 mph - N/A   Overcast
7:55 PM 63.0 °F 52.7 °F 69% 30.25 in 10.0 mi ENE 5.8 mph - N/A   Overcast
8:15 PM 63.1 °F 52.9 °F 69% 30.26 in 10.0 mi ENE 3.5 mph - N/A   Overcast
8:35 PM 63.0 °F 53.1 °F 70% 30.27 in 10.0 mi ENE 4.6 mph - N/A   Overcast
8:55 PM 61.7 °F 54.3 °F 77% 30.27 in 10.0 mi ENE 8.1 mph - N/A   Light Drizzle
9:15 PM 61.0 °F 55.2 °F 81% 30.28 in 10.0 mi NE 5.8 mph - N/A   Overcast
9:35 PM 60.8 °F 55.4 °F 82% 30.28 in 10.0 mi NE 6.9 mph - N/A   Overcast
9:55 PM 60.3 °F 54.5 °F 81% 30.29 in 10.0 mi NE 4.6 mph - N/A   Overcast
10:15 PM 60.3 °F 53.8 °F 79% 30.29 in 10.0 mi Calm Calm - N/A   Overcast
10:35 PM 60.3 °F 53.8 °F 79% 30.29 in 10.0 mi NNE 3.5 mph - N/A   Overcast
10:55 PM 59.4 °F 54.0 °F 82% 30.29 in 10.0 mi North 4.6 mph - N/A Rain Light Rain
11:15 PM 58.6 °F 53.4 °F 83% 30.29 in 10.0 mi NNE 6.9 mph - N/A   Overcast
11:35 PM 58.3 °F 53.4 °F 84% 30.29 in 10.0 mi North 4.6 mph - N/A Rain Light Rain
11:55 PM 57.7 °F 53.2 °F 85% 30.30 in 10.0 mi North 4.6 mph - N/A   Overcast